Home   Weather   Wedel   Past weeks

Flag for Germany Past Weather in Wedel, Schleswig-Holstein, Germany — Yesterday and Last 2 Weeks

Now
46 °F

Partly sunny.


Feels Like: 41 °F
Forecast: 42 / 49 °F
Wind: 10 mph from Southwest

Location: Hamburg-Finkenwerder

Current Time: Dec 8, 2016 at 11:14:07 am

Latest Report: Dec 8, 2016 at 10:20 am


Visibility: N/A

Pressure: 30.24 "Hg

Humidity: 71%

Dew Point: 37 °F

Location of WedelLocation

Past Weather in Wedel — Graph

°F

Wedel Temperature Yesterday

Maximum temperature yesterday: 45 °F (at 5:20 pm)
Minimum temperature yesterday: 32 °F (at 5:50 am)
Average temperature yesterday: 39 °F

High & Low Weather Summary for the Past Weeks

 TemperatureHumidityPressure
High55 °F (Nov 23, 2:20 pm)100% (Nov 24, 8:50 pm)30.57 "Hg (Nov 24, 8:50 pm)
Low21 °F (Dec 5, 7:20 am)56% (Nov 28, 1:50 pm)29.92 "Hg (Dec 1, 7:20 pm)
Average37 °F86%30.29 "Hg
* Reported Nov 23 9:20 am — Dec 8 9:50 am, Wedel, Weather by CustomWeather, © 2016

Note: Actual official high and low records may vary slightly from our data, if they occured in-between our weather recording intervals... More about our weather records

Advertising

Wedel Weather History for the Previous 24 Hours

Scroll right to see more
 ConditionsComfort  
Time TempWeatherWind HumidityBarometerVisibility
9:50 am
Thu, Dec 8
46 °FPartly sunny.10 mph71%30.24 "HgN/A
9:20 am45 °FPartly sunny.10 mph76%30.24 "HgN/A
8:50 am45 °FBroken clouds.10 mph76%30.24 "HgN/A
8:20 am45 °FPassing clouds.12 mph76%30.24 "HgN/A
7:50 am45 °FPassing clouds.9 mph76%30.24 "HgN/A
7:20 am43 °FClear.9 mph81%30.21 "Hg10 mi
6:50 am43 °FClear.9 mph81%30.21 "Hg10 mi
6:20 am43 °FClear.7 mph81%30.21 "Hg10 mi
5:50 am43 °FClear.8 mph81%30.24 "Hg10 mi
7:50 pm
Wed, Dec 7
45 °FClear.12 mph81%30.27 "Hg10 mi
7:20 pm45 °FPassing clouds.13 mph81%30.27 "HgN/A
6:50 pm43 °FClear.13 mph81%30.27 "Hg10 mi
6:20 pm43 °FPassing clouds.9 mph81%30.27 "HgN/A
5:50 pm43 °FClear.12 mph81%30.27 "Hg10 mi
5:20 pm45 °FPassing clouds.15 mph81%30.27 "HgN/A
4:50 pm43 °FClear.12 mph81%30.27 "Hg10 mi
4:20 pm43 °FPassing clouds.10 mph81%30.30 "HgN/A
3:50 pm43 °FSunny.13 mph81%30.30 "Hg10 mi
3:20 pm43 °FSunny.12 mph81%30.30 "Hg10 mi
2:50 pm41 °FSunny.10 mph81%30.30 "Hg10 mi
2:20 pm41 °FPassing clouds.9 mph81%30.30 "HgN/A
1:50 pm41 °FSunny.10 mph76%30.30 "Hg10 mi
1:20 pm39 °FSunny.9 mph81%30.33 "Hg10 mi
12:50 pm39 °FPassing clouds.12 mph81%30.33 "HgN/A
12:20 pm39 °FPartly sunny.12 mph81%30.36 "HgN/A
11:50 am39 °FBroken clouds.7 mph81%30.36 "HgN/A
11:20 am37 °FLight rain. Partly sunny.6 mph87%30.36 "HgN/A
Weather by CustomWeather, © 2016

See weather overviewHow to use our weather pages